Tracking 35331 objects as of 14-Sep-2026
HD Live streaming from Space Station
objects crossing your sky now

THORAD AGENA D DEB


THORAD AGENA D DEB is no longer on orbit


NORAD ID: 4215
Int'l Code: 1969-082CE
Launch date: September 30, 1969
Source: United States (US)
Launch site: AIR FORCE WESTERN TEST RANGE (AFWTR)
Decay date: 2001-03-08

Note: This is SATELLITE DEBRIS
Your satellite tracking list
Your tracking list is empty




NASA's NSSDC Master Catalog

Two Line Element Set (TLE):
1 04215U 69082CE  01064.91262753 +.13476676 +40684-5 +46106-2 0  9999
2 04215 070.1993 012.6918 0012600 171.9684 187.8935 16.25035137657276
Source of the keplerian elements: AFSPC